Home   Weather   Sankt Augustin   Past weeks
Flag for Germany

Past Weather in Sankt Augustin, North Rhine-Westphalia, Germany — Yesterday and Last 2 Weeks

Now
68 °F

Partly sunny.


Feels Like: 68 °F
Forecast: 83 / 59 °F
Wind: 5 mph from West

Location: Koeln / Bonn

Current Time: Jul 21, 2019 at 11:59:14 am

Latest Report: Jul 21, 2019 at 11:20 am


Visibility: N/A

Pressure: 30.15 "Hg

Humidity: 69%

Dew Point: 57 °F

Location of Sankt AugustinLocation

Past Weather in Sankt Augustin — Graph

°F

Sankt Augustin Temperature Yesterday

Maximum temperature yesterday: 84 °F (at 1:20 pm)
Minimum temperature yesterday: 61 °F (at 1:20 am)
Average temperature yesterday: 70 °F

High & Low Weather Summary for the Past Weeks

 TemperatureHumidityPressure
High84 °F (Jul 6, 4:20 pm)100% (Jul 17, 3:50 am)30.15 "Hg (Jul 17, 3:50 am)
Low41 °F (Jul 8, 5:50 am)19% (Jul 10, 3:20 pm)29.80 "Hg (Jul 6, 3:50 pm)
Average63 °F69%30.00 "Hg
* Reported Jul 6 10:20 am — Jul 21 10:20 am, Sankt Augustin. Weather by CustomWeather, © 2019

Note: Actual official high and low records may vary slightly from our data, if they occured in-between our weather recording intervals... More about our weather records

Advertising

Sankt Augustin Weather History for the Previous 24 Hours

Scroll right to see more
 ConditionsComfort  
Time TempWeatherWind HumidityBarometerVisibility
10:20 am
Sun, Jul 21
66 °FBroken clouds.5 mph73%30.15 "HgN/A
9:50 am66 °FBroken clouds.6 mph73%30.12 "HgN/A
9:20 am64 °FPartly sunny.9 mph78%30.12 "HgN/A
8:50 am64 °FScattered clouds.10 mph78%30.12 "HgN/A
8:20 am64 °FPassing clouds.9 mph78%30.09 "HgN/A
7:50 am64 °FPassing clouds.6 mph78%30.09 "HgN/A
7:20 am61 °FPassing clouds.1 mph94%30.09 "HgN/A
6:50 am59 °FPassing clouds.1 mph94%30.09 "HgN/A
6:20 am57 °FSunny.1 mph94%30.07 "Hg10 mi
5:50 am57 °FSunny.1 mph94%30.07 "Hg10 mi
5:20 am59 °FClear.1 mph88%30.04 "Hg10 mi
4:50 am59 °FClear.1 mph94%30.04 "Hg10 mi
4:20 am61 °FPassing clouds.3 mph88%30.04 "HgN/A
3:50 am61 °FClear.1 mph88%30.04 "Hg10 mi
3:20 am59 °FPassing clouds.5 mph94%30.01 "HgN/A
2:50 am61 °FClear.5 mph88%30.01 "Hg10 mi
2:20 am63 °FClear.3 mph88%30.01 "Hg10 mi
1:50 am63 °FClear.1 mph94%30.01 "Hg10 mi
1:20 am64 °FClear.1 mph88%30.01 "Hg10 mi
12:50 am64 °FClear.1 mph88%29.98 "Hg10 mi
12:20 am64 °FClear.2 mph94%29.98 "Hg10 mi
11:50 pm
Sat, Jul 20
64 °FClear.1 mph94%29.98 "Hg10 mi
11:20 pm64 °FPassing clouds.1 mph94%29.98 "HgN/A
10:50 pm66 °FPassing clouds.5 mph88%29.95 "HgN/A
10:20 pm66 °FPassing clouds.5 mph88%29.95 "HgN/A
9:50 pm64 °FPassing clouds.3 mph94%29.95 "HgN/A
9:20 pm66 °FPassing clouds.6 mph88%29.92 "HgN/A
8:50 pm66 °FPassing clouds.7 mph94%29.92 "HgN/A
8:20 pm66 °FPassing clouds.6 mph94%29.92 "HgN/A
7:50 pm66 °FPassing clouds.6 mph88%29.92 "HgN/A
7:20 pm64 °FSprinkles. Passing clouds.2 mph94%29.92 "HgN/A
6:50 pm66 °FThundershowers. Scattered clouds.8 mph83%29.92 "HgN/A
6:20 pm70 °FStrong thunderstorms. Scattered clouds.21 mph73%29.89 "HgN/A
5:50 pm73 °FPassing clouds.3 mph83%29.86 "HgN/A
5:20 pm75 °FThunderstorms. Scattered clouds.5 mph78%29.83 "HgN/A
4:50 pm73 °FThundershowers. Scattered clouds.3 mph78%29.83 "HgN/A
4:20 pm77 °FStrong thunderstorms. Scattered clouds.8 mph61%29.83 "HgN/A
3:50 pm77 °FScattered showers. Scattered clouds.7 mph69%29.83 "HgN/A
3:20 pm82 °FPassing clouds.8 mph48%29.83 "HgN/A
2:50 pm77 °FStrong thunderstorms. Scattered clouds.8 mph61%29.83 "HgN/A
1:50 pm84 °FScattered showers. Passing clouds.13 mph43%29.86 "HgN/A
1:20 pm84 °FScattered showers. Passing clouds.12 mph40%29.86 "HgN/A
12:50 pm82 °FPassing clouds.9 mph45%29.86 "HgN/A
12:20 pm81 °FPassing clouds.10 mph48%29.86 "HgN/A
11:50 am81 °FPassing clouds.10 mph48%29.86 "HgN/A
11:20 am81 °FPassing clouds.10 mph45%29.86 "HgN/A
Weather by CustomWeather, © 2019

See weather overview